Location: Agadir Irigdalene
(31.2522°N, 8.7797°W)
Time: 14:07:33
(UTC+00:00)

Cosmos 1680 Rocket - Pass Details

Date: 01 December 2020
Orbit: 760 x 781 km, 74.1° (Epoch: 26 January)

Event Time Altitude Azimuth Distance (km) Brightness Sun altitude
Rises 19:18:41 0° 209° (SSW) 3,222 7.3 -22.3°
Reaches altitude 10° 19:21:07 10° 215° (SW) 2,302 6.6 -22.8°
Maximum altitude 19:26:10 48° 289° (WNW) 998 4.4 -23.9°
Enters shadow 19:30:18 15° 360° (N) 1,974 5.5 -24.8°
